Regional Weather Roundup
Issued by NWS Wakefield, VA

Home | Current Version | Previous Version | Text Only | Print | Product List | Glossary On
Versions: 1 2 3 4 5 6 7 8 9 10 11 12 13 14 15 16 17 18 19 20 21 22 23 24 25 26 27 28 29 30 31 32 33 34 35 36 37 38 39 40 41 42 43 44 45 46 47 48 49 50
000
ASUS41 KAKQ 102015
RWRAKQ

REGIONAL WEATHER ROUNDUP
NATIONAL WEATHER SERVICE WAKEFIELD VA
300 PM EST WED FEB 10 2016

Note: "fair" indicates few or no clouds below 12,000 feet with no
significant weather and/or obstructions to visibility. * = Denotes
station may not report precipitation (e.g., rain,snow,etc.),
thunder or fog.

VAZ042-051-052>054-056-102100-
NORTHERN VIRGINIA

CITY           SKY/WX    TMP DP  RH WIND       PRES   REMARKS
WASH NATIONAL  PTSUNNY   38  16  40 NW9G18    29.79R
DULLES         PTSUNNY   34  14  43 NW12G20   29.78S
FORT BELVOIR   CLOUDY    37  15  39 NW10      29.78S
QUANTICO       PTSUNNY   39  15  37 NW8G16    29.80R
FREDERICKSBRG* CLOUDY    38  17  41 NW8       29.78R
STAFFORD*      CLOUDY    36  14  40 NW3       29.82R
WARRENTON      CLOUDY    38  21  50 SW5       29.77R
CULPEPER*      CLOUDY    36  15  41 W6        29.78S
MANASSAS*      CLOUDY    37  18  44 N8        29.78S
LEESBURG*      CLOUDY    36  21  55 NW13      29.79S
WINCHESTER     CLOUDY    32  14  47 NW21      29.77S WCI  20
FRONT ROYAL*   CLOUDY    32  12  43 W13       29.76R WCI  22
LURAY*         CLOUDY    30  10  43 W14G22    29.79R WCI  20
$$

VAZ048-049-060>072-079>083-102100-
CENTRAL AND SOUTH CENTRAL VIRGINIA

CITY           SKY/WX    TMP DP  RH WIND       PRES   REMARKS
RICHMOND       PTSUNNY   39  14  36 W16G22    29.79S
CHESTERFIELD*  MOCLDY    39  10  30 W14       29.81S
PETERSBURG*    PTSUNNY   43   6  22 SW15      29.81S
HANOVER        FAIR      40  15  36 W7        29.80S
TAPPAHANNOCK*  PTSUNNY   41  17  38 W10       29.79R
QUINTON*       MOCLDY    41  17  37 W13G22    29.78S
CHARLOTTSVILLE CLOUDY    36  11  35 SW8       29.79R
GORDONSVILLE*  CLOUDY    36  13  37 W9G16     29.78R
ORANGE*        CLOUDY    37  14  38 SW13G20   29.79R
LOUISA*        PTSUNNY   41  16  36 W15       29.76S
BUMPASS*       MOCLDY    38  13  36 W6        29.77S
FARMVILLE*     CLOUDY    37  11  34 SW12G21   29.81R
CREWE*         FAIR      38  15  38 W6G20     29.81R
FORT PICKETT*  FAIR      37  12  35 W15G26    29.81R
CHASE CITY*    CLOUDY    36  11  35 W12G21    29.83R
CLARKSVILLE*   CLOUDY    36  14  41 W13G20    29.84S
SOUTH HILL*    PTSUNNY   37  15  41 W9        29.88S
LAWRENCEVILLE* MOCLDY    39  15  36 W10G20    29.82R
EMPORIA*       PTSUNNY   37  16  41 SW10G17   29.84S
$$

VAZ088>098-102100-
SOUTHEAST VIRGINIA

CITY           SKY/WX    TMP DP  RH WIND       PRES   REMARKS
NORFOLK        FAIR      42  16  34 SW12      29.79F
VIRGINIA BEACH FAIR      47  17  30 SW12G18   29.79S
NORFOLK NAVAL  FAIR      42  17  36 W13G18    29.81S
WEST POINT*    CLOUDY    41  16  36 W13G18    29.80S
SALUDA*        FAIR      41  17  38 W9        29.78S
NEWPORT NEWS   PTSUNNY   41  19  41 W14       29.79F
LANGLEY AFB    MOSUNNY   42  20  41 SW15G22   29.78F
FORT EUSTIS    PTSUNNY   42  16  34 VRB5      29.78S
WILLIAMSBURG*  FAIR      43  19  39 W13G18    29.80S
HR EXEC AP*    FAIR      43  19  39 W9        29.81F
FRANKLIN*      PTSUNNY   41  17  37 W12       29.82S
US460-WAKEFLD  FAIR      43  15  32 VRB7      29.80S
$$

VAZ020-022-025-037-045-102100-
WEST CENTRAL AND SOUTHWEST VIRGINIA

CITY           SKY/WX    TMP DP  RH WIND       PRES   REMARKS
STAUNTON*      CLOUDY    32   7  35 W10G16    29.80R WCI  24
WAYNESBORO*    FAIR      28   4  34 W7G18     29.77S
HOT SPRINGS VA CLOUDY    13   4  66 W21G26    29.63R WCI  -5
LYNCHBURG      PTSUNNY   30   9  41 NW8       29.85S
DANVILLE       CLOUDY    35  10  35 W10G20    29.87R
SOUTH BOSTON*  CLOUDY    34  10  37 W10G20    29.85S
MARTINSVILLE   PTSUNNY   29   6  38 NW9       29.91R
ROANOKE        CLOUDY    26   5  40 NW22G31   29.88R WCI  12
BLACKSBURG     CLOUDY    21   8  57 W15G26    29.85S WCI   7
DUBLIN*        CLOUDY    21  10  62 W13G21    29.86R WCI   9
MARION*        CLOUDY    20   9  63 W22G29    29.84S WCI   3
HILLSVILLE*    CLOUDY    17   8  66 W16G22    29.79R WCI   2
RICHLANDS*     CLOUDY    16   6  64 W7G16     29.84S HAZE
WISE*          CLOUDY    19   3  49 W14G21    29.88S WCI   6
ABINGDON*      CLOUDY    21  10  61 W13G18    29.91F WCI   9
$$

MDZ021>025-VAZ099-100-102100-
SOUTHERN MARYLAND AND THE DELMARVA PENINSULA

CITY           SKY/WX    TMP DP  RH WIND       PRES   REMARKS
PATUXENT RIVER PTSUNNY   38  18  44 W15       29.77S
BAY BRIDGE APT   N/A     36  18  48 W10G21    29.78R
LEONARDTOWN    CLOUDY    37  19  48 W7        29.79R
DOVER          CLOUDY    36  22  57 W16       29.74R
GEORGETOWN     CLOUDY    37  19  48 W10       29.76R
EASTON         MOSUNNY   37  19  48 W9        29.80S
CAMBRIDGE      MOSUNNY   37  19  48 NW14G20   29.77S
SALISBURY      MOSUNNY   38  20  48 W17       29.76F
OCEAN CITY     MOSUNNY   38  21  50 NW13G20   29.76F
WALLOPS ISLAND FAIR      39  19  44 W13       29.78S
ACCOMACK*      FAIR      37  21  52 NW9       29.79S
$$

NCZ012>017-030>032-102100-
NORTH CENTRAL AND EASTERN NORTH CAROLINA

CITY           SKY/WX    TMP DP  RH WIND       PRES   REMARKS
ROANOKE RAPIDS MOCLDY    39  18  41 SW13G20   29.84S
RALEIGH        PTSUNNY   37  14  38 W10G22    29.87R
ELIZABETH CITY MOSUNNY   41  20  43 SW16      29.82F
AHOSKIE*       MOSUNNY   41  18  39 W3        29.83F
EDENTON*       SUNNY     43  20  40 W10G17    29.84S
CURRITUCK*     SUNNY    N/A N/A N/A SW10G20   29.82S
KILL DEVIL HLS SUNNY     42  20  42 W3        29.81F
MANTEO         SUNNY     40  21  47 W13       29.83F
CAPE HATTERAS  SUNNY     41  21  44 W9G18     29.85F
TARBORO*       FAIR      39  18  41 W9        29.87S
GOLDSBORO      PTSUNNY   41  16  36 W17       29.85S
WASHINGTON     MOSUNNY   41  18  39 W13G18    29.85S
GREENVILLE     PTSUNNY   43  19  39 W10G17    29.88S
NEW BERN       MOSUNNY   42  18  37 W9        29.87F
WILMINGTON     PTSUNNY   43  20  39 W21       29.89S
$$

VAZ048-102100-
ELSEWHERE

CITY           SKY/WX    TMP DP  RH WIND       PRES   REMARKS
HARRISBURG PA  CLOUDY    31  16  54 W13G22    29.73S WCI  21
BALTIMORE      MOSUNNY   37  16  42 W17       29.77R
ANNAPOLIS      MOSUNNY   36  17  46 NW15      29.78R
ANDREWS AFB    CLOUDY    36  15  43 NW14G20   29.76R
PHILADELPHIA   CLOUDY    35  16  45 W15       29.73R
HENDERSON NC   MOSUNNY   36  11  35 W9G17     29.84S
GREENSBORO     PTSUNNY   36   9  32 NW18G24   29.86R
ROCKY MOUNT    PTSUNNY   38  17  42 W12G22    29.86S
$$

VAZ100-102100-
MARINE

STATION/POSITION TIME  TEMP    WIND        PRES    WAVE   SWELL
                       AIR SEA DIR/SP/G            HT/PER HT/PER
                 (UTC) (F)     (DEG/KT/KT) (MB)    (FT/S) (FT/S)
BRANDYWINE LGT   1900   34     310/ 20/ 24 1006.8R
CAPE MAY NJ      1900   36 41  290/ 17/ 23 1006.5F
LEWES DE         1900   36 41  300/ 18/ 21 1007.1F
15NM E FENWICK I 1950   36 43              1007.5R   4/12
OCEAN-CITY-INLET 1900   36 41  320/ 12/ 15 1007.1S
WACHAPREAGUE VA  1900   38 44  270/  6/ 10 1008.6F
THOMAS POINT MD  2000   35 39  310/ 12/ 14 1009.0R
GOOSES REEF MD   2000   37 40  300/ 10/ 12 1009.2R   1/ 2
COVE POINT MD    1900   36     310/  8/ 14 1008.7F
SOLOMONS ISLAND  1900   38 41  320/  7/ 11   N/A
BISHOPS HEAD MD  1900   36 40  280/  7/ 12 1007.5F
PINEY POINT MD   1900          330/ 11/ 14   N/A
POTOMAC MD       2000   38 40  290/ 12/ 16 1007.2F   1/ 3
CAMBRIDGE MD     1900   35 40  310/ 10/ 14 1007.3F
LEWISETTA VA     1900   36 41  310/ 11/ 16 1008.2F
RAPPAHANNOCK LGT 1900          250/  4/  5 1009.1F
STINGRAY PT      1900   38 42  280/  8/ 10 1008.4F   1/ 2
YORK RVR RNG VA  1900   39     270/ 12/ 17 1008.0F
YORKTOWN VA      1900   39 43  250/ 12/ 17 1008.4F
JAMESTOWN VA     2000   39 44  260/ 10/ 12   N/A     1
DOMINION TERM VA 1900   39     270/ 11/ 15 1008.9F
KIPTOPEKE VA     1900      42  280/  8/ 11   N/A
CHES BAY BRIDGE  1900   37 43  260/ 15/ 17 1008.6F
CAPE HENRY VA    1900   39     280/ 10/ 14   N/A
CHESAPEAKE LGHT  1900   38     300/ 10/ 11 1009.9F
WILLOUBY STN VA  1900   38     240/ 12/ 15 1009.7F
CAPE HENRY BUOY  1958      44                N/A     3/13   2/13
1ST LANDING BUOY 2000      42                N/A     1/ 3
CAPE CHARLES BUO 1956      43                N/A     3/13   3/13
OFFSHORE WE BUOY 1951      46                N/A     4/13   3/13
64NM E OF VA BCH 1950   38 50  270/ 14/ 17 1009.4F   7/ 5   5/13
DUCK PIER NC     1900   37     230/ 13/ 17 1009.6F
44100 DUCK FRF   1954      47                N/A     4/13   3/13
44056 DUCK FRF   1911      45                N/A     3/12   3/12
OREGON INLET NC  1900   38 43  230/  9/ 11 1010.3F
HATTERAS NC      1900   39 49  260/ 13/ 18 1010.6F
DIAMOND SHLS NC  1950   42 72  280/ 16/ 21 1010.9C1F1C2F2C3F3C4F4C5F5C6F6C7F7C8M1C9!


USA.gov is the U.S. government's official web portal to all federal, state and local government web resources and services.